STARLINK-3044 (49438 NORAD) Tracking and Keplerian Element Data

This shows tracking and keplerian element data for the satellite.

Feedback or suggestion? Click here.




ElementValue
Catalog49438
NameSTARLINK-3044
Epoch Orbit485
Epoch Day340.25001157
Epoch Year2021
RAAN20.5832
Inclination53.2184
Eccentricity0.0002034
Argument of Perigee33.689
Mean Anonmoly125.2165
Mean Motion15.73207868
Decay Rate-3.072E-05
L11 49438U 21104AG 21340.25001157 -.00003072 00000+0 -17459-4 0 9990
L22 49438 53.2184 20.5832 0002034 33.6890 125.2165 15.73207868 4857

Live tracking and technical data element details for STARLINK-3044 (NORAD 49438). STARLINK-3044 can be tracked NOW for your location showing map with azimuth and elevation plus other details from your city location.

Track the satellite on the map from your city or location and see movement details for azimuth, elevation, latitude, longitude, range, height, and movement on the map or in text.







IsCatalogInMostPopularTable: catalog: 49438, numindb: 1
Update: records affected: 1



GetName: 49438 STARLINK-3044

Hit Count: updated at: Wed, 08 Dec 2021 15:47:37 GMT